Location: Broek
(53.2737°N, 5.9967°E)
Time: 09:31:19
(UTC+00:00)

Cosmos 2221 Rocket - Visible Passes

Search period start: 15 January 2026 00:00
Search period end: 25 January 2026 00:00
Orbit: 615 x 642 km, 82.5° (Epoch: 14 January)

Date Brightness Start Highest point End Pass type
(mag) Time Alt. Az. Time Alt. Az. Time Alt. Az.
17 Jan 6.5 06:20:50 10° NE 06:21:41 10° NE 06:22:33 10° ENE visible
18 Jan 6.2 06:39:30 10° NNE 06:42:26 17° ENE 06:45:22 10° ESE visible
21 Jan 6.4 06:02:51 10° NNE 06:05:05 13° ENE 06:07:18 10° E visible
22 Jan 6.0 06:22:18 10° NNE 06:25:46 21° ENE 06:29:13 10° ESE visible
23 Jan 5.3 06:42:12 10° N 06:46:20 34° ENE 06:50:28 10° SE visible
24 Jan 6.7 05:26:47 10° NE 05:27:41 10° NE 05:28:34 10° ENE visible
